Flag for Canada Weather past 2 weeks in St. Catharines, Ontario, Canada

Now
69 °F

Mild.


Feels Like: 69 °F
Forecast: 64 / 79 °F
Wind: 3 mph from Northeast

Location: Port Colborne Airport

Current Time: Aug 30, 2015 at 4:38:59 AM

Latest Report: Aug 30, 2015 at 4:00 AM


Visibility: N/A

Pressure: 30.06 "Hg

Humidity: 68%

Dew point: 58 °F

Location of St. CatharinesLocation

Historic Weather in St. Catharines — Graph

°F

St. Catharines temperature yesterday

Maximum temperature yesterday: 73 °F (at 9:00 PM)
Minimum temperature yesterday: 61 °F (at 6:00 AM)
Average temperature yesterday: 69 °F

Past Weeks' High & Low Weather Summary

 TemperatureHumidityPressure
High85 °F (Aug 19, 6:00 PM)96% (Aug 17, 10:00 PM)30.23 "Hg (Aug 17, 10:00 PM)
Low58 °F (Aug 27, 3:00 AM)40% (Aug 23, 6:00 PM)29.75 "Hg (Aug 20, 6:00 AM)
Average69 °F72%30.03 "Hg
* Reported Aug 15 3:00 AM — Aug 30 3:00 AM, St. Catharines, Weather by CustomWeather, © 2015

Note: Actual official high and low records may vary slightly from our data, if they occured in-between our weather recording intervals... More about our weather records

Advertising

St. Catharines weather history for previous 24 hours

 ConditionsComfort  
Time TempWeatherWind HumidityBarometerVisibility
3:00 AM
Sun, Aug 30
70 °FMild.6 mph75%30.05 "HgN/A
2:00 AM70 °FMild.2 mph70%30.07 "HgN/A
1:00 AM70 °FMild.1 mph77%30.08 "HgN/A
12:00 AM71 °FMild.3 mph70%30.09 "HgN/A
11:00 PM
Sat, Aug 29
71 °FMild.8 mph75%30.08 "HgN/A
10:00 PM72 °FMild.9 mph66%30.08 "HgN/A
9:00 PM73 °FMild.3 mph57%30.09 "HgN/A
8:00 PM72 °FMild.5 mph62%30.08 "HgN/A
7:00 PM72 °FMild.3 mph61%30.09 "HgN/A
6:00 PM72 °FMild.3 mph61%30.10 "HgN/A
5:00 PM72 °FMild.6 mph63%30.10 "HgN/A
4:00 PM71 °FMild.3 mph65%30.12 "HgN/A
3:00 PM70 °FMild.6 mph70%30.13 "HgN/A
2:00 PM70 °FMild.6 mph72%30.16 "HgN/A
1:00 PM69 °FMild.6 mph74%30.17 "HgN/A
12:00 PM69 °FMild.5 mph78%30.18 "HgN/A
11:00 AM68 °FMild.7 mph80%30.17 "HgN/A
10:00 AM68 °FMild.6 mph79%30.17 "HgN/A
9:00 AM65 °FMild.3 mph83%30.18 "HgN/A
8:00 AM62 °FMild.3 mph85%30.18 "HgN/A
7:00 AM62 °FMild.6 mph84%30.16 "HgN/A
6:00 AM61 °FCool.7 mph85%30.15 "HgN/A
5:00 AM65 °FMild.7 mph78%30.15 "HgN/A
4:00 AM69 °FMild.10 mph75%30.14 "HgN/A
Weather by CustomWeather, © 2015

See weather overviewHow to use our weather pages